This is the latest recevied weather packets stored in our database for station/object MB7UKY-10. If no packets are shown the sender has not sent any weather packets the latest 1 day(s).
| Time | Temp. | Humidity | Pressure | Rain* | Wind** | Luminosity | Snow |
|---|---|---|---|---|---|---|---|
| 1777736302 | 26.11° C | 45% | 1008.4 hPa | - | - | - | - |
| 1777735401 | 26.11° C | 44% | 1008.7 hPa | - | - | - | - |
| 1777734498 | 26.11° C | 44% | 1009 hPa | - | - | - | - |
| 1777733597 | 25.56° C | 45% | 1009.2 hPa | - | - | - | - |
| 1777732696 | 25.56° C | 45% | 1009.3 hPa | - | - | - | - |
| 1777731795 | 25° C | 45% | 1009.6 hPa | - | - | - | - |
| 1777730895 | 25° C | 45% | 1009.7 hPa | - | - | - | - |
| 1777729994 | 24.44° C | 46% | 1009.8 hPa | - | - | - | - |
| 1777729093 | 24.44° C | 45% | 1009.9 hPa | - | - | - | - |
| 1777728193 | 24.44° C | 45% | 1010.3 hPa | - | - | - | - |
| 1777727292 | 23.89° C | 46% | 1010.3 hPa | - | - | - | - |
| 1777726391 | 23.89° C | 45% | 1010.5 hPa | - | - | - | - |
| 1777725490 | 24.44° C | 45% | 1010.6 hPa | - | - | - | - |
| 1777724590 | 24.44° C | 45% | 1010.8 hPa | - | - | - | - |
| 1777723689 | 24.44° C | 45% | 1010.9 hPa | - | - | - | - |
| 1777722788 | 24.44° C | 45% | 1011.3 hPa | - | - | - | - |
| 1777721887 | 23.89° C | 45% | 1011.5 hPa | - | - | - | - |
| 1777720987 | 23.89° C | 46% | 1011.5 hPa | - | - | - | - |
| 1777720086 | 23.33° C | 46% | 1011.5 hPa | - | - | - | - |
| 1777719185 | 23.89° C | 45% | 1011.6 hPa | - | - | - | - |
| 1777718284 | 23.89° C | 45% | 1011.6 hPa | - | - | - | - |
| 1777717384 | 23.89° C | 45% | 1011.8 hPa | - | - | - | - |
| 1777716483 | 23.89° C | 45% | 1011.9 hPa | - | - | - | - |
| 1777715582 | 23.89° C | 45% | 1012.1 hPa | - | - | - | - |
| 1777714681 | 23.89° C | 46% | 1012.1 hPa | - | - | - | - |
* Rain since midnight (hover to see other rain measurements)
** Current wind speed in m/s (hover to see current wind gust speed)